{"data":{"norad_id":68551,"epoch":"2026-05-25T00:00:02.000160Z","epoch_age_seconds":75338,"freshness":"FRESH","line1":"1 68551U 26070K   26145.00002315  .00038749  00000+0  11531-2 0  9992","line2":"2 68551  53.1599   7.7057 0000932  77.4389 304.2727 15.34371963  5997","mean_motion":15.34371963,"eccentricity":9.32e-5,"inclination_deg":53.1599,"raan_deg":7.7057,"arg_perigee_deg":77.4389,"mean_anomaly_deg":304.2727,"bstar":0.0011531,"rev_number":599,"period_min":93.849472926012,"perigee_km":462.14899927151,"apogee_km":463.42414742558,"semimajor_km":6840.9235733485,"source":"CELESTRAK","updated_at":"2026-05-25T13:38:21.961395Z"}}